This is the latest recevied weather packets stored in our database for station/object W1RCP. If no packets are shown the sender has not sent any weather packets the latest 10 day(s).
| Time | Temp. | Humidity | Pressure | Rain* | Wind** | Luminosity | Snow |
|---|---|---|---|---|---|---|---|
| 1778171314 | 22.22° C | 93% | 1025.6 hPa | 6.6 mm | - | 25 W/m² | - |
| 1778171009 | 22.22° C | 93% | 1025.8 hPa | 4.32 mm | - | 21 W/m² | - |
| 1778170707 | 22.22° C | 93% | 1025.6 hPa | 4.32 mm | - | 22 W/m² | - |
| 1778170403 | 22.22° C | 93% | 1025.7 hPa | 3.05 mm | - | 22 W/m² | - |
| 1778170100 | 22.22° C | 94% | 1025.5 hPa | 1.78 mm | - | 26 W/m² | - |
| 1778169795 | 22.22° C | 94% | 1025.6 hPa | 3.05 mm | - | 26 W/m² | - |
| 1778169492 | 22.22° C | 94% | 1025.6 hPa | 3.05 mm | - | 29 W/m² | - |
| 1778169188 | 21.67° C | 95% | 1025.8 hPa | 3.05 mm | - | 29 W/m² | - |
| 1778168884 | 21.67° C | 95% | 1025.5 hPa | 1.27 mm | - | 32 W/m² | - |
| 1778168582 | 21.67° C | 95% | 1025.5 hPa | 1.78 mm | - | 36 W/m² | - |
| 1778168278 | 21.67° C | 95% | 1025.1 hPa | 0 mm | - | 42 W/m² | - |
| 1778167975 | 21.67° C | 96% | 1025.1 hPa | 0 mm | - | 54 W/m² | - |
| 1778167671 | 21.67° C | 96% | 1025 hPa | 1.27 mm | - | 50 W/m² | - |
| 1778167368 | 21.67° C | 96% | 1024.8 hPa | 1.27 mm | - | 39 W/m² | - |
| 1778167064 | 21.67° C | 96% | 1024.8 hPa | 4.83 mm | - | 29 W/m² | - |
| 1778166760 | 21.67° C | 95% | 1025.2 hPa | 9.65 mm | - | 23 W/m² | - |
| 1778166457 | 21.67° C | 95% | 1026 hPa | 4.32 mm | - | 18 W/m² | - |
| 1778166154 | 21.67° C | 95% | 1026.8 hPa | 3.05 mm | - | 17 W/m² | - |
| 1778165850 | 21.67° C | 95% | 1026.5 hPa | 6.1 mm | - | 21 W/m² | - |
| 1778165547 | 21.67° C | 95% | 1025.8 hPa | 3.05 mm | - | 36 W/m² | - |
| 1778165244 | 21.67° C | 95% | 1026.1 hPa | 1.27 mm | - | 34 W/m² | - |
| 1778164942 | 21.67° C | 95% | 1026.1 hPa | 3.05 mm | - | 21 W/m² | - |
| 1778164637 | 21.67° C | 95% | 1026.3 hPa | 3.56 mm | - | 19 W/m² | - |
| 1778164335 | 21.67° C | 95% | 1026.3 hPa | 4.83 mm | - | 24 W/m² | - |
| 1778164031 | 21.67° C | 95% | 1026.4 hPa | 4.32 mm | - | 21 W/m² | - |
* Rain latest hour (hover to see other rain measurements)
** Current wind speed in m/s (hover to see current wind gust speed)